Weather in Paliki

Russia / Kaluga Oblast     53°50′55″N   34°58′52″E
temp.,
°C
wind,
m/s
gust,
m/s
humid.,
%
clouds,
%
prec.,
mm/h
press.,
hPa
HPBL,
m
20 april, tue
tue2000:00+4ene3997100 0.2 1019575
03:00+4ene41097100 0.3 1018628
06:00+5ene4995100 0.3 1016807
09:00+5ene41092100 0.4 1016618
12:00+6ene4991100 0.4 1014875
15:00+7ene5988100 0.5 1013720
18:00+4ene51096100 0.0 1012563
21:00+3ne4997100 0.1 1011482
21 april, wed
wed2100:00+3nne3897100 0.1 1008457
03:00+3n3697100 0.3 1006517
06:00+2nw2598100 0.2 1005459
09:00+3w2697100 0.3 1006578
12:00+4wsw3696100 0.1 1008622
15:00+7wsw3573100 0.2 10091121
18:00+6sw2584100 0.1 1010375
21:00+5ssw3792100 0.1 1012221
22 april, thu
thu2200:00+4ssw3996100 0.4 1013403
03:00+5ssw389496 0.7 1014432
06:00+2s2798100 0.0 1015174
09:00+8ssw378278 0.0 1015445
12:00+12ssw466156 0.1 10151438
15:00+13s5769100 1.2 10141289
18:00+12s497828 1.1 1014771
21:00+8s310915 1.3 1015226
23 april, fri
fri2300:00+7s3109456 0.0 1015209
03:00+7s3129289 0.2 1015357
06:00+7s41390100 0.0 1014383
09:00+10s4128398 0.3 1015656
12:00+15ssw6126582 0.6 10131641
15:00+12wsw3784100 3.6 1013790
18:00+8wnw3694100 2.9 1013386
21:00+6nw2593100 5.8 1013393
24 april, sat
sat2400:00+5wnw3697100 3.1 1012461
03:00+3wnw3997100 8.2 1012534
06:00+4w3696100 1.3 1012455
09:00+5sw3586100 1.6 1011690
12:00+8wsw4661100 0.8 10101633
15:00+8w686076 1.5 10101709
18:00+6w58635 0.6 10111473
21:00+2wsw39815 0.6 1012301